Simultaneous Nadir Overpasses (SNOs) Predictions

Prediction of SNOs between NOAA-20 and PACE Satellite Orbit:

Table of predicted SNOs for the next 14.0 days since TLE Epoch: 6/14/2025
Index Date (NOAA-20) Time (NOAA-20) Lat,Lon (NOAA-20) SZA (NOAA-20 ) Date (PACE) Time (PACE) Lat,Lon (PACE) SZA (PACE ) Distance(km) Time Diff (sec)
1 06/16/2025 06:28:22 79.54, 47.92 58.21 06/16/2025 06:28:37 79.54, 47.97 58.20 0.89 15
2 06/18/2025 10:54:51 79.62, -19.39 58.31 06/18/2025 10:55:49 79.63, -19.42 58.29 0.76 58
3 06/18/2025 11:45:30 -79.44, 149.47 122.01 06/18/2025 11:44:55 -79.44, 149.54 122.00 1.52 35
4 06/20/2025 16:11:58 -79.49, 82.43 121.93 06/20/2025 16:12:06 -79.50, 82.34 121.92 1.83 8
5 06/22/2025 20:38:28 -79.61, 14.82 121.70 06/22/2025 20:39:18 -79.61, 14.79 121.72 0.56 50
6 06/22/2025 21:29:06 79.37,-175.90 57.90 06/22/2025 21:28:22 79.37,-175.92 57.92 0.54 44
7 06/25/2025 01:55:36 79.50, 116.49 58.16 06/25/2025 01:55:34 79.50, 116.45 58.17 0.81 2
8 06/27/2025 06:22:04 79.59, 49.11 58.41 06/27/2025 06:22:44 79.60, 48.98 58.41 2.78 40



Historial Predications of SNOs between NOAA-20 and PACE
